Tracking 27079 objects as of 23-Mar-2023
HD Live streaming from Space Station
objects crossing your sky now

SKYKRAFT-1B

Track SKYKRAFT-1B now!
10-day predictions


NORAD ID: 55058
Int'l Code: 2023-001BB
Perigee: 522.1 km
Apogee: 538.5 km
Inclination: 97.5 °
Period: 95.1 minutes
Semi major axis: 6901 km
RCS: Unknown
Launch date: January 3, 2023
Source: Australia (AUS)
Launch site: AIR FORCE EASTERN TEST RANGE (AFETR)
Your satellite tracking list
Your tracking list is empty




NASA's NSSDC Master Catalog

Two Line Element Set (TLE):
1 55058U 23001BB  23081.41996432  .00010154  00000-0  55740-3 0  9996
2 55058  97.4891 142.2699 0011903 314.4960  45.5298 15.14273341 11924
Source of the keplerian elements: AFSPC